STARLINK-30388, 57784

Orbit data source: Space-Track

STARLINK-30388, 57784 is a payload satellite in LEO that was launched on Mon, 04 Sep 2023 UTC via an FALCON 9 launch vehicle from the Air Force Eastern Test Range (AFETR). Payload-class satellites include a variety of spacecraft equipped with specific instruments for various scientific and technological missions. These include communications satellites like Starlink; space stations such as the ISS; scientific satellites like the Hubble; Earth observation satellites from companies like Planet Labs, Umbra, and HawkEye 360; GPS; miniature CubeSats for education and research; and military/defense satellites.

Loading next visibility...
Identifier
57784, 2023-134P
Orbit
LEO
Last TLE update
7 hours ago
Origin
Manufacturer
SpaceX/Seattle
Mission
Operational Commercial Communications
Bus & Motor
STARLINK V2M, Unknown motor
Mass
730 kg wet, ~700 kg dry
Launch date (UTC)
2023-09-04 (2 years ago)
Launch vehicle
FALCON 9
Launch site
Air Force Eastern Test Range (AFETR)
Object type
Payload
Rocket body
Debris
Shape & HBR
Box + 2 Pan, 29 m
Radar Cross Section
33.884 m², Large (>1 m²)

Expand to show TLE details & history

TLE from 7 hours ago
0 STARLINK-30388
1 57784U 23134P   25151.10414699 -.00001475  00000-0 -94201-4 0  9991
2 57784  43.0034 292.9482 0001310 268.7372  91.3320 15.02525917 96968
Epoch: 2025-05-31T02:29Z
TLE epoch observation values (Epoch: 2025-05-31T02:29:58.299Z)
Latitude
-0.00006°
Longitude
6.6059°
Altitude
558.91 km
Speed
7.584 km/s
True Right ascension
19h 31m 47s
True Declination
0° 00' 00"
Sunlit
Object was in full shadow at epoch
Visualization orbit readout
Latitude
-13.28222°
Longitude
-160.45968°
Altitude
561.26 km
Speed
7.582 km/s
Apparent Right ascension
07h 57m 42s
Apparent Declination
-26° 05' 11"
Sunlit
Object is in daylight
Visualization observer readout
Local Sidereal Time
19:22:02
Azimuth
329.038° NNW
Elevation
-74.298°
Doppler factor
1
Orbital elements
Apogee altitude
561.943 km
Perigee altitude
560.125 km
Semi-major axis
6,939.171 km
Eccentricity
0.00013
Inclination
43.0034°
RAAN
292.9482°
Arg. of periapsis
268.7372°
True anomaly
Unknown
Mean anomaly
91.332°
Eccentric anomaly
Unknown
Mean motion
3.75476 °/min
Orbital period
95.88 mins
BSTAR
-0.000094201
Loading maneuver chart data...
Loading SW <> Apogee altitude chart data...
Loading historical data...
Loading historical data...
Loading historical data...
Loading historical data...
Loading historical data...
Loading historical data...
Loading historical data...

STARLINK-30388 Visibility forecast

Observer location: undefined°, undefined°

Span
Click to sort rows by Start time (UTC) header in descending order
Start Az.
Max El. time (UTC)
Max El. Az.
Max El.
End time (UTC)
End Az.
6 mins2025-05-31 12:14:55.145Z200.783° SSW2025-05-31 12:17:55.145Z154.67° SSE22.966°2025-05-31 12:20:55.145Z97.18° ESE
6 mins2025-05-31 13:55:55.145Z250.944° W2025-05-31 13:58:55.145Z71.004° E44.461°2025-05-31 14:01:55.145Z71.871° E
6 mins2025-05-31 15:36:55.145Z287.355° WNW2025-05-31 15:39:55.145Z22.239° NNE38.567°2025-05-31 15:42:55.145Z75.54° E
6 mins2025-05-31 17:17:55.145Z289.464° WNW2025-05-31 17:20:55.145Z95.159° ESE43.114°2025-05-31 17:23:55.145Z106.428° ESE
5 mins2025-05-31 18:58:55.145Z255.575° W2025-05-31 19:00:55.145Z212° SW25.031°2025-05-31 19:03:55.145Z158.821° S
|